Београд, метеограме

Београд: време по сату
Недеља, 07 Јуна
Време Падавине Температура Осећа се Притисак Влажност Ветар
04:00 0.02 мм +16.3° +17.6° 747.000 мм.ж.с 89% 2 м/с, ЈИ
05:00 0.24 мм +17.4° +18.7° 747.000 мм.ж.с 85% 2 м/с, ЈИ
06:00 0.24 мм +18.5° +19.7° 747.000 мм.ж.с 81% 2 м/с, ЈИ
07:00 0.24 мм +19.6° +20.8° 747.000 мм.ж.с 77% 2 м/с, ЈИ
08:00 0.08 мм +21.2° +22.4° 747.000 мм.ж.с 72% 2 м/с, ЈИ
09:00 0.08 мм +22.7° +23.8° 747.000 мм.ж.с 66% 2 м/с, ЈИ
10:00 0.08 мм +24.3° +25.3° 747.000 мм.ж.с 61% 2 м/с, ЈИ
11:00 0.01 мм +25° +26° 747.000 мм.ж.с 58% 2 м/с, ЈИ
12:00 0.01 мм +25.8° +26.7° 747.000 мм.ж.с 55% 3 м/с, ЈИ
13:00 0.01 мм +26.6° +27.3° 746.000 мм.ж.с 51% 3 м/с, ЈИ
14:00 0 мм +26.7° +27.3° 746.000 мм.ж.с 51% 3 м/с, ЈИ
15:00 0 мм +26.7° +27.4° 746.000 мм.ж.с 51% 2 м/с, ЈИ
16:00 0 мм +26.7° +27.4° 746.000 мм.ж.с 51% 2 м/с, ЈИ
17:00 0.05 мм +25.2° +26.1° 746.000 мм.ж.с 57% 2 м/с, ЈИ
18:00 0.05 мм +23.7° +24.8° 747.000 мм.ж.с 63% 2 м/с, ЈИ
19:00 0.05 мм +22.2° +23.4° 747.000 мм.ж.с 69% 1 м/с, ЈИ
20:00 0.43 мм +21.2° +22.4° 747.000 мм.ж.с 72% 1 м/с, Ј
21:00 0.43 мм +20.1° +21.3° 747.000 мм.ж.с 75% 1 м/с, Ј
22:00 0.43 мм +19.1° +20.3° 748.000 мм.ж.с 78% 1 м/с, Ј
23:00 0.31 мм +18.6° +19.8° 748.000 мм.ж.с 81% 1 м/с, Ј
Понедељак, 08 Јуна
Време Падавине Температура Осећа се Притисак Влажност Ветар
00:00 0.31 мм +18° +19.2° 748.000 мм.ж.с 83% 1 м/с, ЈЗ
01:00 0.31 мм +17.4° +18.7° 748.000 мм.ж.с 86% 1 м/с, ЈЗ
02:00 0.26 мм +17° +18.3° 748.000 мм.ж.с 87% 1 м/с, ЈЗ
03:00 0.26 мм +16.6° +17.8° 748.000 мм.ж.с 88% 1 м/с, ЈЗ
04:00 0.26 мм +16.2° +17.4° 748.000 мм.ж.с 89% 1 м/с, ЈЗ
05:00 0.45 мм +17.4° +18.6° 748.000 мм.ж.с 86% 1 м/с, ЈЗ
06:00 0.45 мм +18.5° +19.8° 748.000 мм.ж.с 83% 1 м/с, ЈЗ
07:00 0.45 мм +19.7° +21° 748.000 мм.ж.с 80% 1 м/с, З
08:00 0.53 мм +21° +22.3° 748.000 мм.ж.с 75% 1 м/с, З
09:00 0.53 мм +22.3° +23.6° 748.000 мм.ж.с 71% 1 м/с, СЗ
10:00 0.53 мм +23.6° +24.8° 748.000 мм.ж.с 66% 2 м/с, СЗ
11:00 0.6 мм +24.4° +25.5° 748.000 мм.ж.с 62% 1 м/с, СЗ
12:00 0.6 мм +25.2° +26.2° 748.000 мм.ж.с 58% 1 м/с, С
13:00 0.6 мм +26.1° +26.9° 748.000 мм.ж.с 54% 1 м/с, С
14:00 1.28 мм +25° +26.1° 748.000 мм.ж.с 60% 1 м/с, СЗ
15:00 1.28 мм +23.9° +25.3° 748.000 мм.ж.с 66% 2 м/с, СЗ
16:00 1.28 мм +22.9° +24.4° 748.000 мм.ж.с 72% 3 м/с, СЗ
17:00 0.9 мм +21.4° +23° 748.000 мм.ж.с 77% 2 м/с, СЗ
18:00 0.9 мм +20° +21.6° 748.000 мм.ж.с 83% 2 м/с, С
19:00 0.9 мм +18.6° +20.2° 748.000 мм.ж.с 88% 2 м/с, С
20:00 0.23 мм +18.1° +19.6° 748.000 мм.ж.с 88% 1 м/с, С
21:00 0.23 мм +17.5° +18.9° 748.000 мм.ж.с 88% 1 м/с, С
22:00 0.23 мм +17° +18.3° 749.000 мм.ж.с 88% 0 м/с, З
23:00 0.13 мм +16.8° +18.1° 749.000 мм.ж.с 89% 0 м/с, З
Уторак, 09 Јуна
Време Падавине Температура Осећа се Притисак Влажност Ветар
00:00 0.13 мм +16.6° +17.9° 749.000 мм.ж.с 90% 1 м/с, З
01:00 0.13 мм +16.3° +17.6° 749.000 мм.ж.с 90% 1 м/с, З
02:00 0.13 мм +16.1° +17.4° 749.000 мм.ж.с 91% 1 м/с, З
03:00 0.13 мм +15.8° +17.1° 749.000 мм.ж.с 92% 1 м/с, З

Такође

Meteograms hourly weather Мапе времена Преглед времена
Meteograms hourly weather Мапе времена Преглед времена
 
Време у Србији:
О проjекту
© meteoprog.rs 2003-2020.
Meteoprog.ua - погода в Украине 0.0383
sitemap